Find Starlink 30806

NORAD ID: 58180 Int'l Des: 2023-167 Owner: SPXS Country: US Constellation: starlink operational
LEOCIRCULAR

Live Position

Loading 3D Globe...

About Starlink 30806

Description loading...

Upcoming Passes

Passes for default location (London). Set your location on the main map for personalized predictions.

Altitude History

Loading altitude history...

Two-Line Element Set

1 58180U 23167F 26124.51320399 .00046828 00000-0 16504-2 0 9994
2 58180 42.9979 188.0418 0001454 297.3004 62.7700 15.28558734139523
Epoch: May 4, 2026 • Age: 17 hours

Current Status

Altitude 484.3 km
Velocity 7.62 km/s
Sub-Earth Point -19.73°S, 89.87°E
Launch Date Oct 30, 2023
Age 2.5 years
Type internet

Technical Details

Classification Payload
Mass 730.00 kg
Dry Mass 700.00 kg
Total Mass 730.00 kg
Length 0.30 m
Diameter 4.10 m
Span 29.00 m
Shape Box + pan
Manufacturer SPXS
Bus Type Starlink V2M
Phase Status In Orbit
Owner/State SPXS/US

Most Searched